DEIMOS 1

Satellite information

Favourite Embed

Satellite Type and Status

PAYLOADIN ORBIT

Key statistics

Satellite DEIMOS 1 at a glance.

Uptime

5982

Days in orbit

Revolutions

≈ 14.7

Per day

Orbit

SSO

Sun Synchronous Orbit

Inclination

97.7

Latest

Satellite identification and parameters

Extended collection of information and parameters for DEIMOS 1.

Object identification

Identified? True

Debris? False

Object name: DEIMOS 1

International designator: 2009-041A

Object number (NORAD): 35681

Object ID (CCSDS): 35681

Country: SPAIN (SPN)

Current information (Y/N): Y

RCS size: MEDIUM

Orbital parameters

Period: 97.63 minutes

Inclination: 97.7149 deg

SMA: 7023.431 km

Apoapsis: 647.214 km

Periapsis: 643.378 km

RAAN: 148.2242 deg

Eccentricy: 0.00027307

Argument of periapsis: 78.398 deg

Mean anomaly: 281.7536 deg

Mean motion: 14.74955029 rev/day

Mean motion (dot): 0.000011 rev/day2

B* drag term: 0.00017069353 1/REarth

Two-line elements (TLE)

Creation date: Dec. 14, 2025, 3:07 a.m.

Reference frame: TEME

Reference center: EARTH

Epoch: Dec. 13, 2025, 3:56 p.m. UTC

TLE line 0: 0 DEIMOS 1

TLE line 1: 1 35681U 09041A 25347.66399080 .00001100 00000-0 17069-3 0 9997

TLE line 2: 2 35681 97.7149 148.2242 0002731 78.3980 281.7536 14.74955029879533

Live tracking on map

Real-time ground track for satellite DEIMOS 1.

In-orbit conjunctions

There are no conjunctions computed for DEIMOS 1, at the moment. Check back to stay up to date, as we update our databases every day.

Go to all conjunctions

Associated space launch

Emirati Earth observation satellite. Launched with 5 secondary payloads.

DEIMOS 1 was lifted into orbit during the mission ‘Dnepr | DubaiSat 1’, on board a Dnepr space rocket.

The launch took place on July 29, 2009, 6:46 p.m. from 109/95.

For more information about the launch, click the button.

Launch to space Dnepr | DubaiSat 1
Dnepr | DubaiSat 1

Agency: N/A

Status: Launch Successful

Launch date: July 29, 2009, 6:46 p.m. UTC

Rocket: Dnepr

Launch pad: 109/95

Location: Baikonur Cosmodrome, Republic of Kazakhstan

...

Latest news about this satellite

There are no fresh news available about this satellite. Check back as we update our databases every day.


Newsletter sign-up

Weekly statistics, charts and insights to help you stay on top of the space industry.